This demonstration page uses our WeatherBlox Daily Observations layout. Learn more.

Left ArrowRight Arrow

31.31129, -92.44514

Hourly Observations for December 12, 2021

Temp ( °F °C ) Dew Point ( °F °C ) Humidity (%) Winds ( mph kmh ) Pressure ( in mb ) Visibility ( mi km ) Precip ( " mm )
12:53 am 00:53 Clear 45 7.2 34 1.1 66 66 N 6 9 30.28 1026 10 16 0.00 0.00
1:53 am 01:53 Clear 42 5.6 34 1.1 73 73 N 5 7 30.28 1026 10 16 0.00 0.00
2:53 am 02:53 Clear 38 3.3 33 0.6 83 83 NNW 5 7 30.29 1026 10 16 0.00 0.00
3:53 am 03:53 Clear 38 3.3 33 0.6 83 83 NNW 3 6 30.27 1025 10 16 0.00 0.00
4:53 am 04:53 Clear 35 1.7 32 0 89 89 NNW 5 7 30.29 1026 10 16 0.00 0.00
5:53 am 05:53 Clear 35 1.7 32 0 89 89 NNW 6 9 30.31 1027 10 16 0.00 0.00
6:53 am 06:53 Clear 35 1.7 32 0 89 89 N 5 7 30.33 1027 10 16 0.00 0.00
7:53 am 07:53 Sunny 39 3.9 34 1.1 82 82 NNE 5 7 30.35 1028 10 16 0.00 0.00
8:53 am 08:53 Sunny 44 6.7 34 1.1 68 68 ENE 9 15 30.36 1028 10 16 0.00 0.00
9:53 am 09:53 Sunny 48 8.9 34 1.1 58 58 E 6 9 30.37 1028 10 16 0.00 0.00
10:53 am 10:53 Sunny 50 10 34 1.1 54 54 ENE 7 11 30.35 1028 10 16 0.00 0.00
11:53 am 11:53 Sunny 54 12.2 34 1.1 47 47 ENE 5 7 30.32 1027 10 16 0.00 0.00
12:53 pm 12:53 Sunny 56 13.3 34 1.1 44 44 VRB 5 7 30.29 1026 10 16 0.00 0.00
1:53 pm 13:53 Sunny 58 14.4 33 0.6 39 39 SE 5 7 30.27 1025 10 16 0.00 0.00
2:53 pm 14:53 Sunny 59 15 32 0 36 36 E 5 7 30.25 1025 10 16 0.00 0.00
3:53 pm 15:53 Sunny 58 14.4 31 -0.6 36 36 ESE 7 11 30.25 1024 10 16 0.00 0.00
4:53 pm 16:53 Sunny 56 13.3 32 0 40 40 E 5 7 30.25 1024 10 16 0.00 0.00
5:53 pm 17:53 Clear 52 11.1 33 0.6 49 49 E 5 7 30.26 1025 10 16 0.00 0.00
6:53 pm 18:53 Clear 48 8.9 34 1.1 58 58 ENE 5 7 30.26 1025 10 16 0.00 0.00
7:53 pm 19:53 Clear 45 7.2 34 1.1 66 66 Calm 30.27 1025 10 16 0.00 0.00
8:53 pm 20:53 Clear 44 6.7 36 2.2 73 73 Calm 30.28 1025 10 16 0.00 0.00
9:53 pm 21:53 Clear 43 6.1 37 2.8 80 80 Calm 30.28 1025 10 16 0.00 0.00
10:53 pm 22:53 Clear 42 5.6 38 3.3 85 85 Calm 30.28 1025 10 16 0.00 0.00
11:53 pm 23:53 Clear 42 5.6 37 2.8 82 82 Calm 30.28 1025 10 16 0.00 0.00

Powered by AerisWeather